• In Deutschland
  • Länderverzeichnis
  • Für 7 Tage
  • Wassertemperatur
  • Satellitenkarten
  • Wetterkarte
  • Widgets
  • user-avatar
    Anmelden

    Stündliche Wetter Isernhagen

    Heute, 21 Februar, Mittwoch

    Zeit Temperatur Niederschläge Wind Luftdruck Luftfeuchtigkeit
    00:00 -3°C° 0 mm 2 m/S 761 mmHg 84%
    01:00 -3°C° 0 mm 2 m/S 761 mmHg 84%
    02:00 -3°C° 0 mm 2 m/S 761 mmHg 84%
    03:00 -3°C° 0 mm 2 m/S 761 mmHg 84%
    04:00 -4°C° 0 mm 2 m/S 762 mmHg 84%
    05:00 -4°C° 0 mm 2 m/S 762 mmHg 84%
    06:00 -4°C° 0 mm 2 m/S 762 mmHg 84%
    07:00 -4°C° 0 mm 2 m/S 762 mmHg 84%
    08:00 -3°C° 0 mm 2 m/S 762 mmHg 78%
    09:00 -2°C° 0 mm 2 m/S 762 mmHg 73%
    10:00 -1°C° 0 mm 2 m/S 762 mmHg 67%
    11:00 0°C° 0 mm 3 m/S 762 mmHg 63%
    12:00 +1°C° 0 mm 3 m/S 762 mmHg 58%
    13:00 +2°C° 0 mm 3 m/S 762 mmHg 53%
    14:00 +2°C° 0 mm 3 m/S 762 mmHg 54%
    15:00 +2°C° 0 mm 3 m/S 762 mmHg 54%
    16:00 +2°C° 0 mm 3 m/S 762 mmHg 54%
    17:00 +1°C° 0 mm 3 m/S 762 mmHg 60%
    18:00 +1°C° 0 mm 2 m/S 762 mmHg 65%
    19:00 -2°C° 0 mm 2 m/S 762 mmHg 71%
    20:00 -2°C° 0 mm 2 m/S 762 mmHg 73%
    21:00 -2°C° 0 mm 2 m/S 763 mmHg 74%
    22:00 -3°C° 0 mm 2 m/S 763 mmHg 76%
    23:00 -3°C° 0 mm 2 m/S 763 mmHg 77%

    Morgen, 22 Februar, Donnerstag

    Zeit Temperatur Niederschläge Wind Luftdruck Luftfeuchtigkeit
    00:00 -3°C° 0 mm 2 m/S 763 mmHg 79%
    01:00 -3°C° 0 mm 2 m/S 763 mmHg 80%
    02:00 -3°C° 0 mm 2 m/S 763 mmHg 81%
    03:00 -3°C° 0 mm 2 m/S 763 mmHg 81%
    04:00 -3°C° 0 mm 2 m/S 763 mmHg 82%
    05:00 -1°C° 0 mm 1 m/S 763 mmHg 82%
    06:00 -1°C° 0 mm 1 m/S 762 mmHg 82%
    07:00 -1°C° 0 mm 1 m/S 762 mmHg 81%
    08:00 -1°C° 0 mm 1 m/S 763 mmHg 76%
    09:00 -2°C° 0 mm 2 m/S 763 mmHg 71%
    10:00 -1°C° 0 mm 2 m/S 763 mmHg 65%
    11:00 +1°C° 0 mm 2 m/S 762 mmHg 61%
    12:00 +2°C° 0 mm 2 m/S 762 mmHg 58%
    13:00 +2°C° 0 mm 3 m/S 762 mmHg 54%
    14:00 +3°C° 0 mm 2 m/S 762 mmHg 55%
    15:00 +3°C° 0 mm 2 m/S 761 mmHg 57%
    16:00 +3°C° 0 mm 2 m/S 761 mmHg 58%
    17:00 +2°C° 0 mm 2 m/S 761 mmHg 65%
    18:00 +1°C° 0 mm 2 m/S 761 mmHg 71%
    19:00 -2°C° 0 mm 2 m/S 761 mmHg 78%
    20:00 -2°C° 0 mm 2 m/S 762 mmHg 81%
    21:00 -2°C° 0 mm 2 m/S 762 mmHg 83%
    22:00 -3°C° 0 mm 2 m/S 762 mmHg 86%
    23:00 -3°C° 0 mm 2 m/S 762 mmHg 86%

    übermorgen, 23 Februar, Freitag

    Zeit Temperatur Niederschläge Wind Luftdruck Luftfeuchtigkeit
    00:00 -3°C° 0 mm 2 m/S 762 mmHg 86%
    01:00 -4°C° 0 mm 2 m/S 762 mmHg 86%
    02:00 -4°C° 0 mm 2 m/S 762 mmHg 84%
    03:00 -4°C° 0 mm 2 m/S 762 mmHg 82%
    04:00 -4°C° 0 mm 2 m/S 762 mmHg 80%
    05:00 -4°C° 0 mm 2 m/S 762 mmHg 78%
    06:00 -4°C° 0 mm 2 m/S 762 mmHg 75%
    07:00 -4°C° 0 mm 2 m/S 762 mmHg 73%
    08:00 -4°C° 0 mm 3 m/S 762 mmHg 65%
    09:00 -4°C° 0 mm 3 m/S 763 mmHg 58%
    10:00 -3°C° 0 mm 4 m/S 763 mmHg 50%
    11:00 -2°C° 0 mm 4 m/S 763 mmHg 45%
    12:00 -1°C° 0 mm 4 m/S 763 mmHg 39%
    13:00 0°C° 0 mm 5 m/S 762 mmHg 33%
    14:00 0°C° 0 mm 5 m/S 762 mmHg 33%
    15:00 0°C° 0 mm 5 m/S 762 mmHg 32%
    16:00 0°C° 0 mm 5 m/S 762 mmHg 31%
    17:00 -1°C° 0 mm 4 m/S 762 mmHg 36%
    18:00 -3°C° 0 mm 4 m/S 762 mmHg 40%
    19:00 -4°C° 0 mm 4 m/S 763 mmHg 44%
    20:00 -4°C° 0 mm 4 m/S 763 mmHg 44%
    21:00 -4°C° 0 mm 4 m/S 763 mmHg 44%
    22:00 -4°C° 0 mm 4 m/S 763 mmHg 45%
    23:00 -4°C° 0 mm 4 m/S 763 mmHg 44%

    24 Februar, Samstag

    Zeit Temperatur Niederschläge Wind Luftdruck Luftfeuchtigkeit
    00:00 -4°C° 0 mm 4 m/S 764 mmHg 44%
    01:00 -5°C° 0 mm 4 m/S 764 mmHg 44%
    02:00 -5°C° 0 mm 4 m/S 764 mmHg 44%
    03:00 -5°C° 0 mm 4 m/S 764 mmHg 45%
    04:00 -6°C° 0 mm 5 m/S 764 mmHg 46%
    05:00 -6°C° 0 mm 5 m/S 764 mmHg 49%
    06:00 -6°C° 0 mm 5 m/S 764 mmHg 53%
    07:00 -6°C° 0 mm 5 m/S 764 mmHg 57%
    08:00 -5°C° 0 mm 6 m/S 764 mmHg 59%
    09:00 -4°C° 0 mm 6 m/S 765 mmHg 62%
    10:00 -3°C° 0 mm 7 m/S 765 mmHg 64%
    11:00 -3°C° 0 mm 7 m/S 765 mmHg 58%
    12:00 -2°C° 0 mm 7 m/S 765 mmHg 52%
    13:00 -1°C° 0 mm 7 m/S 765 mmHg 46%
    14:00 -1°C° 0 mm 7 m/S 764 mmHg 44%
    15:00 -2°C° 0 mm 7 m/S 764 mmHg 41%
    16:00 -2°C° 0 mm 7 m/S 764 mmHg 38%
    17:00 -3°C° 0 mm 7 m/S 765 mmHg 40%
    18:00 -4°C° 0 mm 6 m/S 765 mmHg 42%
    19:00 -5°C° 0 mm 6 m/S 765 mmHg 44%
    20:00 -5°C° 0 mm 6 m/S 766 mmHg 45%
    21:00 -5°C° 0 mm 6 m/S 766 mmHg 45%
    22:00 -6°C° 0 mm 6 m/S 766 mmHg 46%
    23:00 -6°C° 0 mm 6 m/S 766 mmHg 47%

    25 Februar, Sonntag

    Zeit Temperatur Niederschläge Wind Luftdruck Luftfeuchtigkeit
    00:00 -6°C° 0 mm 6 m/S 766 mmHg 48%
    01:00 -7°C° 0 mm 5 m/S 767 mmHg 49%
    02:00 -7°C° 0 mm 5 m/S 767 mmHg 49%
    03:00 -7°C° 0 mm 5 m/S 767 mmHg 50%
    04:00 -7°C° 0 mm 5 m/S 767 mmHg 50%
    05:00 -8°C° 0 mm 5 m/S 767 mmHg 49%
    06:00 -8°C° 0 mm 5 m/S 767 mmHg 49%
    07:00 -8°C° 0 mm 5 m/S 767 mmHg 48%
    08:00 -8°C° 0 mm 5 m/S 767 mmHg 44%
    09:00 -8°C° 0 mm 6 m/S 767 mmHg 39%
    10:00 -8°C° 0 mm 6 m/S 768 mmHg 35%
    11:00 -6°C° 0 mm 6 m/S 768 mmHg 33%
    12:00 -5°C° 0 mm 6 m/S 767 mmHg 31%
    13:00 -4°C° 0 mm 6 m/S 767 mmHg 30%
    14:00 -4°C° 0 mm 5 m/S 767 mmHg 32%
    15:00 -4°C° 0 mm 5 m/S 767 mmHg 34%
    16:00 -4°C° 0 mm 5 m/S 767 mmHg 36%
    17:00 -4°C° 0 mm 4 m/S 767 mmHg 40%
    18:00 -5°C° 0 mm 4 m/S 767 mmHg 44%
    19:00 -5°C° 0 mm 3 m/S 767 mmHg 49%
    20:00 -6°C° 0 mm 3 m/S 767 mmHg 49%
    21:00 -6°C° 0 mm 3 m/S 767 mmHg 49%
    22:00 -6°C° 0 mm 3 m/S 767 mmHg 49%
    23:00 -6°C° 0 mm 3 m/S 767 mmHg 50%

    26 Februar, Montag

    Zeit Temperatur Niederschläge Wind Luftdruck Luftfeuchtigkeit
    00:00 -7°C° 0 mm 3 m/S 767 mmHg 51%
    01:00 -6°C° 0 mm 2 m/S 767 mmHg 53%
    02:00 -6°C° 0 mm 2 m/S 767 mmHg 55%
    03:00 -6°C° 0 mm 2 m/S 767 mmHg 58%
    04:00 -7°C° 0 mm 2 m/S 767 mmHg 61%
    05:00 -7°C° 0 mm 2 m/S 767 mmHg 64%
    06:00 -7°C° 0 mm 2 m/S 767 mmHg 67%
    07:00 -7°C° 0 mm 2 m/S 767 mmHg 70%
    08:00 -6°C° 0 mm 2 m/S 767 mmHg 66%
    09:00 -6°C° 0 mm 3 m/S 767 mmHg 61%
    10:00 -6°C° 0 mm 3 m/S 767 mmHg 57%
    11:00 -5°C° 0 mm 3 m/S 766 mmHg 53%
    12:00 -4°C° 0 mm 3 m/S 766 mmHg 48%
    13:00 -4°C° 0 mm 3 m/S 766 mmHg 44%
    14:00 -4°C° 0 mm 3 m/S 765 mmHg 44%
    15:00 -4°C° 0 mm 3 m/S 765 mmHg 44%
    16:00 -4°C° 0 mm 3 m/S 764 mmHg 44%
    17:00 -4°C° 0 mm 3 m/S 764 mmHg 48%
    18:00 -5°C° 0 mm 3 m/S 764 mmHg 52%
    19:00 -5°C° 0 mm 2 m/S 764 mmHg 56%
    20:00 -5°C° 0 mm 2 m/S 764 mmHg 58%
    21:00 -5°C° 0 mm 2 m/S 764 mmHg 61%
    22:00 -5°C° 0 mm 2 m/S 764 mmHg 64%
    23:00 -6°C° 0 mm 2 m/S 764 mmHg 66%
    Mehr zeigen